Weather observations for the past three days for
San Luis Valley Regional Airport
| Date | Time (mdt) | Wind (mph) | Vis. (mi.) | Weather | Sky Cond. | Temperature (ºF) | Relative Humidity | Wind Chill (°F) | Heat Index (°F) | Pressure | Precipitation (in) | ||||||
|---|---|---|---|---|---|---|---|---|---|---|---|---|---|---|---|---|---|
| Air | Dwpt | 6 hour | altimeter (in) | sea level (mb) | 1 hr | 3 hr | 6 hr | ||||||||||
| Max. | Min. | ||||||||||||||||
| 05 | 23:52 | SE 14 | 10.00 | Overcast | BKN046 OVC095 | 39.9 | 34 | 51.1 | 39.9 | 79% | 33 | 29.9 | 1007.1 | ||||
| 05 | 22:52 | SW 8 | 10.00 | Light Rain | OVC047 | 43 | 33.1 | 68% | 39 | 29.9 | 1007.2 | ||||||
| 05 | 21:52 | NE 13 G 22 | 10.00 | Light Rain | SCT037 BKN060 OVC080 | 43 | 34 | 71% | 37 | 29.89 | 1007.2 | ||||||
| 05 | 20:52 | S 9 | 10.00 | A Few Clouds | FEW120 | 44.1 | 30.9 | 60% | 40 | 29.84 | 1005.6 | ||||||
| 05 | 19:52 | S 12 | 10.00 | Mostly Cloudy | FEW048 SCT080 BKN120 | 46.9 | 28 | 48% | 42 | 29.82 | 1004.4 | ||||||
| 05 | 18:52 | E 7 | 10.00 | Overcast | SCT055 BKN080 OVC095 | 48.9 | 28.9 | 46% | 46 | 29.82 | 1004.2 | ||||||
| 05 | 17:52 | NE 14 G 24 | 7.00 | Overcast | FEW033 BKN070 OVC080 | 51.1 | 30 | 64 | 51.1 | 45% | 29.8 | 1003.1 | |||||
| 05 | 16:52 | SW 23 G 30 | 10.00 | Fair and Breezy | CLR | 60.1 | 21.9 | 23% | 29.75 | 1000.8 | |||||||
| 05 | 15:52 | SW 24 G 45 | 10.00 | Fair and Breezy | CLR | 61 | 23 | 23% | 29.76 | 1000.7 | |||||||
| 05 | 14:52 | SW 25 G 41 | 10.00 | Partly Cloudy and Breezy | SCT110 | 64 | 23 | 21% | 29.77 | 1000.4 | |||||||
| 05 | 13:52 | S 14 G 32 | 10.00 | A Few Clouds | FEW080 | 61 | 18 | 19% | 29.8 | 1001.6 | |||||||
| 05 | 12:52 | S 14 G 31 | 10.00 | Fair | CLR | 57 | 23 | 27% | 29.83 | 1003.5 | |||||||
| 05 | 11:52 | S 23 G 32 | 10.00 | A Few Clouds and Breezy | FEW110 | 54 | 21 | 54 | 45 | 28% | 29.87 | 1005.3 | |||||
| 05 | 10:52 | S 15 G 22 | 10.00 | Overcast | BKN065 OVC080 | 51.1 | 23 | 33% | 29.88 | 1005.5 | |||||||
| 05 | 09:52 | S 10 | 10.00 | Overcast | BKN095 OVC110 | 48 | 21 | 34% | 44 | 29.89 | 1006.1 | ||||||
| 05 | 08:52 | S 6 | 10.00 | A Few Clouds | FEW120 | 46.9 | 19 | 33% | 45 | 29.9 | 1006.0 | ||||||
| 05 | 07:52 | SW 5 | 10.00 | Fair | CLR | 46.9 | 18 | 31% | 45 | 29.91 | 1006.1 | ||||||
| 05 | 06:52 | W 13 | 10.00 | Fair | CLR | 46 | 18 | 33% | 41 | 29.88 | 1004.8 | ||||||
| 05 | 05:52 | W 14 | 10.00 | Fair | CLR | 46 | 18 | 48.9 | 39.9 | 33% | 40 | 29.88 | 1004.7 | ||||
| 05 | 04:52 | S 9 | 10.00 | Fair | CLR | 41 | 18 | 39% | 36 | 29.88 | 1005.0 | ||||||
| 05 | 03:52 | S 8 | 10.00 | Fair | CLR | 42.1 | 19.9 | 41% | 38 | 29.89 | 1004.8 | ||||||
| 05 | 02:52 | SW 8 | 10.00 | Mostly Cloudy | BKN090 | 45 | 19.9 | 37% | 41 | 29.9 | 1004.7 | ||||||
| 05 | 01:52 | S 9 | 10.00 | Fair | CLR | 46 | 19 | 34% | 42 | 29.91 | 1005.3 | ||||||
| 05 | 00:52 | S 10 | 10.00 | Fair | CLR | 46.9 | 18 | 31% | 43 | 29.92 | 1006.0 | ||||||
| 04 | 23:52 | SE 7 | 10.00 | Fair | CLR | 45 | 21 | 63 | 44.1 | 39% | 42 | 29.92 | 1006.7 | ||||
| 04 | 22:52 | SW 9 | 10.00 | Fair | CLR | 50 | 19 | 29% | 47 | 29.93 | 1006.5 | ||||||
| 04 | 21:52 | SW 8 | 10.00 | Fair | CLR | 52 | 19.9 | 28% | 29.93 | 1006.5 | |||||||
| 04 | 20:52 | W 13 | 10.00 | Fair | CLR | 55 | 17.1 | 22% | 29.91 | 1005.7 | |||||||
| 04 | 19:52 | W 20 G 31 | 10.00 | Fair | CLR | 55.9 | 14 | 19% | 29.89 | 1005.6 | |||||||
| 04 | 18:52 | W 22 G 31 | 10.00 | Fair and Breezy | CLR | 59 | 17.1 | 19% | 29.87 | 1005.1 | |||||||
| 04 | 17:52 | SW 20 G 36 | 10.00 | Fair | CLR | 62.1 | 17.1 | 66.9 | 57 | 17% | 29.87 | 1004.5 | |||||
| 04 | 16:52 | W 16 G 31 | 10.00 | Fair | CLR | 64.9 | 17.1 | 16% | 29.87 | 1003.8 | |||||||
| 04 | 15:52 | SW 17 G 31 | 10.00 | A Few Clouds | FEW095 | 66 | 19.9 | 17% | 29.88 | 1004.2 | |||||||
| 04 | 14:52 | SW 20 G 28 | 10.00 | Fair | CLR | 66 | 19.9 | 17% | 29.9 | 1004.6 | |||||||
| 04 | 13:52 | N 8 | 10.00 | A Few Clouds | FEW085 | 63 | 27 | 26% | 29.93 | 1006.2 | |||||||
| 04 | 12:52 | Calm | 10.00 | Fair | CLR | 61 | 28 | 29% | 29.95 | 1007.4 | |||||||
| 04 | 11:52 | S 5 | 10.00 | Fair | CLR | 57 | 30 | 57.9 | 41 | 36% | 29.99 | 1009.5 | |||||
| 04 | 10:52 | S 5 | 10.00 | A Few Clouds | FEW085 | 55 | 30.9 | 40% | 30.02 | 1011.1 | |||||||
| 04 | 09:52 | Vrbl 3 | 10.00 | A Few Clouds | FEW100 | 53.1 | 30.9 | 43% | 30.04 | 1011.3 | |||||||
| 04 | 08:52 | NW 3 | 10.00 | A Few Clouds | FEW100 | 50 | 32 | 50% | 30.06 | 1012.0 | |||||||
| 04 | 07:52 | W 3 | 10.00 | A Few Clouds | FEW070 | 46.9 | 28 | 48% | 30.07 | 1011.5 | |||||||
| 04 | 06:52 | Calm | 10.00 | Mostly Cloudy | BKN075 BKN095 | 42.1 | 26.1 | 53% | 30.05 | 1011.0 | |||||||
| 04 | 05:52 | W 3 | 10.00 | Mostly Cloudy | BKN080 BKN095 | 44.1 | 24.1 | 46 | 42.1 | 45% | 30.03 | 1009.6 | |||||
| 04 | 04:52 | SE 3 | 10.00 | Overcast | BKN070 OVC085 | 44.1 | 23 | 43% | 30.04 | 1010.0 | |||||||
| 04 | 03:52 | E 5 | 10.00 | Mostly Cloudy | SCT080 BKN110 | 44.1 | 21.9 | 41% | 42 | 30.02 | 1009.4 | ||||||
| 04 | 02:52 | NE 5 | 10.00 | Overcast | FEW055 SCT070 OVC085 | 45 | 19.9 | 37% | 43 | 30.03 | 1009.6 | ||||||
| 04 | 01:52 | Calm | 10.00 | Overcast | BKN100 OVC110 | 45 | 19.9 | 37% | 30.03 | 1009.7 | |||||||
| 04 | 00:52 | SW 6 | 10.00 | Overcast | OVC110 | 45 | 23 | 42% | 42 | 30.04 | 1009.8 | ||||||
| 03 | 23:52 | W 5 | 10.00 | A Few Clouds | FEW120 | 42.1 | 21 | 66 | 39.9 | 43% | 40 | 30.04 | 1010.7 | ||||
| 03 | 22:52 | Vrbl 5 | 9.00 | Fair | CLR | 41 | 19.9 | 43% | 38 | 30.04 | 1011.8 | ||||||
| 03 | 21:52 | W 3 | 10.00 | Fair | CLR | 46.9 | 21.9 | 37% | 30.05 | 1011.6 | |||||||
| 03 | 20:52 | W 5 | 10.00 | Fair | CLR | 48.9 | 21 | 33% | 48 | 30.03 | 1011.5 | ||||||
| 03 | 19:52 | N 7 | 10.00 | Mostly Cloudy | BKN100 | 59 | 21 | 23% | 30.01 | 1010.4 | |||||||
| 03 | 18:52 | NW 16 G 25 | 10.00 | Mostly Cloudy | BKN110 | 62.1 | 19 | 19% | 30.01 | 1011.5 | |||||||
| 03 | 17:52 | W 14 G 28 | 10.00 | Overcast | OVC100 | 66 | 19 | 68 | 60.1 | 16% | 30.01 | 1011.1 | |||||
| 03 | 16:52 | Vrbl 6 | 10.00 | Mostly Cloudy | FEW080 BKN110 | 66 | 17.1 | 15% | 30.01 | 1010.7 | |||||||
| 03 | 15:52 | Vrbl 7 | 10.00 | A Few Clouds | FEW110 | 64.9 | 15.1 | 14% | 30.03 | 1011.7 | |||||||
| 03 | 14:52 | Vrbl 7 | 10.00 | A Few Clouds | FEW120 | 64.9 | 15.1 | 14% | 30.07 | 1012.9 | |||||||
| 03 | 13:52 | Calm | 10.00 | Partly Cloudy | SCT100 | 64 | 15.1 | 15% | 30.11 | 1014.4 | |||||||
| 03 | 12:52 | S 12 G 22 | 10.00 | A Few Clouds | FEW100 | 64 | 15.1 | 15% | 30.14 | 1015.4 | |||||||
| 03 | 11:52 | SW 7 | 10.00 | Fair | CLR | 61 | 15.1 | 61 | 28 | 17% | 30.18 | 1016.1 | |||||
| 03 | 10:52 | Vrbl 5 | 10.00 | Fair | CLR | 57 | 19.9 | 24% | 30.2 | 1017.4 | |||||||
| 03 | 09:52 | Vrbl 5 | 10.00 | Fair | CLR | 52 | 24.1 | 34% | 30.22 | 1018.9 | |||||||
| 03 | 08:52 | Vrbl 3 | 10.00 | Fair | CLR | 48 | 27 | 44% | 30.24 | 1019.6 | |||||||
| 03 | 07:52 | SE 3 | 10.00 | Fair | CLR | 41 | 30 | 65% | 30.25 | 1019.9 | |||||||
| 03 | 06:52 | E 5 | 10.00 | Fair | CLR | 28.9 | 24.1 | 82% | 25 | 30.24 | 1020.3 | ||||||
| 03 | 05:52 | NE 5 | 10.00 | Fair | CLR | 28 | 23 | 37.9 | 27 | 81% | 24 | 30.22 | 1019.6 | ||||
| 03 | 04:52 | E 8 | 10.00 | Fair | CLR | 30 | 21.9 | 72% | 23 | 30.22 | 1018.9 | ||||||
| 03 | 03:52 | E 7 | 10.00 | Fair | CLR | 30 | 19.9 | 66% | 24 | 30.22 | 1019.4 | ||||||
| 03 | 02:52 | E 8 | 10.00 | Fair | CLR | 30 | 12.9 | 49% | 23 | 30.22 | 1019.7 | ||||||
| 03 | 01:52 | NE 5 | 10.00 | Fair | CLR | 30.9 | 10.9 | 43% | 27 | 30.22 | 1019.6 | ||||||
| 03 | 00:52 | SE 7 | 10.00 | Fair | CLR | 32 | 16 | 52% | 26 | 30.22 | 1019.8 | ||||||
| Date | Time (mdt) | Wind (mph) | Vis. (mi.) | Weather | Sky Cond. | Air | Dwpt | Max. | Min. | Relative Humidity | Wind Chill (°F) | Heat Index (°F) | altimeter (in) | sea level (mb) | 1 hr | 3 hr | 6 hr |
| 6 hour | |||||||||||||||||
| Temperature (ºF) | Pressure | Precipitation (in) | |||||||||||||||